STARLINK-4068 (52681 NORAD) Tracking and Keplerian Element Data

This shows tracking and keplerian element data for the satellite.

Feedback or suggestion? Click here.




ElementValue
Catalog52681
NameSTARLINK-4068
Epoch Orbit130
Epoch Day192.91667824
Epoch Year2022
RAAN28.7707
Inclination53.2174
Eccentricity0.00015
Argument of Perigee49.5345
Mean Anonmoly74.3485
Mean Motion15.53825727
Decay Rate-0.0105969
L11 52681U 22053AB 22192.91667824 -.01059690 00000+0 -17832-1 0 9996
L22 52681 53.2174 28.7707 0001500 49.5345 74.3485 15.53825727 1303

Live tracking and technical data element details for STARLINK-4068 (NORAD 52681). STARLINK-4068 can be tracked NOW for your location showing map with azimuth and elevation plus other details from your city location.

Track the satellite on the map from your city or location and see movement details for azimuth, elevation, latitude, longitude, range, height, and movement on the map or in text.







IsCatalogInMostPopularTable: catalog: 52681, numindb: 6
Update: records affected: 1



GetName: 52681 STARLINK-4068

Hit Count: updated at: Sun, 14 Aug 2022 00:21:03 GMT